Location: Austin
(30.3000°N, 97.7500°W)
Time: 05:10:23
(UTC-06:00)

Cosmos 1674 Rocket - Pass Details

Date: 05 February 2026
Orbit: 597 x 621 km, 82.5° (Epoch: 15 February)

Event Time Altitude Azimuth Distance (km) Brightness Sun altitude
Rises 06:33:37 0° 357° (N) 2,901 6.8 -10.3°
Reaches altitude 10° 06:35:52 10° 1° (N) 1,991 6.0 -9.8°
Maximum altitude 06:40:15 65° 83° (E) 684 4.1 -8.9°
Drops below altitude 10° 06:44:35 10° 165° (SSE) 1,971 6.5 -8.0°
Sets 06:46:49 0° 169° (SSE) 2,870 7.3 -7.5°
